Powrót do katalogu

STARLINK-32718

AktywnyŁącznośćVLEO
NORAD 62496·PAYLOAD·🇺🇸 United States

Wystrzelony Jan 6, 2025 z Cape Canaveral Space Force Station

Loading…

Następne Przeloty (najbliższe 24 godziny)

TLE

ŚwieżeSource: CelesTrak SupGP

Epoka: Sep 15, 2026, 03:42 UTC

1 62496C 25003K   26258.15465278  .00011332  00000+0  41032-3 0  2588
2 62496  43.0027 298.6519 0001433 269.7496  13.6666 15.27582782    15

Śledź STARLINK-32718 w czasie rzeczywistym z AllMySat

Download on the App Store